Tracking 17147 objects as of 5-July-2015
HD Live streaming from Space Station

SL-16 DEB

Track SL-16 DEB now!
10-day predictions
SL-16 DEB is classified as:


NORAD ID: 22336
Int'l Code: 1992-093Z
Perigee: 840.0 km
Apogee: 1,015.8 km
Inclination: 71.1 °
Period: 103.4 minutes
Semi major axis: 7298 km
RCS: 0.2247 m2 (medium)
Launch date: December 25, 1992
Source: Commonwealth of Independent States (former USSR) (CIS)

Note: This is SATELLITE DEBRIS
Your satellite tracking list
Your tracking list is empty





NASA's NSSDC Master Catalog

Two Line Element Set (TLE):
1 22336U 92093Z   15185.86850557  .00000818  00000-0  63382-3 0  9995
2 22336 071.1328 351.4696 0120457 208.6034 265.9934 13.92240970140613

Source of the keplerian elements: AFSPC

N2YO: 234